VU36VU-13 Weather Reports


time (UTC)temp
C
wind
direction
speed
KPH
gust
KPH
rain 1hr
cm
rain 24hr
cm
rain mn
cm
humidity
%
barometer
mb
20260505054806 31 331 22.5 80.5 0.00 0.00 0.00 36 1011.0
20260505054606 31 331 22.5 80.5 0.00 0.00 0.00 36 1011.0
20260505054406 30 323 22.5 80.5 0.00 0.00 0.00 38 1011.0
20260505054206 30 323 22.5 80.5 0.00 0.00 0.00 38 1011.0
20260505054010 30 323 22.5 80.5 0.00 0.00 0.00 38 1011.0
20260505053806 30 323 22.5 80.5 0.00 0.00 0.00 38 1011.0
20260505053606 30 323 22.5 80.5 0.00 0.00 0.00 38 1011.0
20260505053407 30 323 22.5 80.5 0.00 0.00 0.00 38 1011.0
20260505053006 30 315 22.5 78.9 0.00 0.00 0.00 42 1011.0
20260505052806 30 315 22.5 78.9 0.00 0.00 0.00 42 1011.0
20260505052606 30 315 22.5 78.9 0.00 0.00 0.00 42 1011.0
20260505052408 30 315 22.5 78.9 0.00 0.00 0.00 42 1011.0
20260505052206 30 315 22.5 78.9 0.00 0.00 0.00 42 1011.0
20260505052010 30 315 22.5 78.9 0.00 0.00 0.00 42 1011.0
20260505051806 30 315 22.5 78.9 0.00 0.00 0.00 42 1011.0
20260505051606 30 315 22.5 78.9 0.00 0.00 0.00 42 1011.0
20260505051407 29 308 24.1 77.2 0.00 0.00 0.00 46 1011.0
20260505051011 29 308 24.1 77.2 0.00 0.00 0.00 46 1011.0
20260505050806 29 308 24.1 77.2 0.00 0.00 0.00 46 1011.0
20260505050606 29 308 24.1 77.2 0.00 0.00 0.00 46 1011.0
20260505050406 29 308 24.1 77.2 0.00 0.00 0.00 46 1011.0
20260505050207 29 308 24.1 77.2 0.00 0.00 0.00 46 1011.0
20260505041606 26 294 22.5 69.2 0.00 0.00 0.00 59 1012.0
20260505041406 26 288 22.5 66.0 0.00 0.00 0.00 64 1012.0
20260505041206 26 288 22.5 66.0 0.00 0.00 0.00 64 1012.0
20260505041010 26 288 22.5 66.0 0.00 0.00 0.00 64 1012.0
20260505040806 26 288 22.5 66.0 0.00 0.00 0.00 64 1012.0
20260505040607 26 288 22.5 66.0 0.00 0.00 0.00 64 1012.0
20260505040207 26 288 22.5 66.0 0.00 0.00 0.00 64 1012.0
20260505040007 25 285 22.5 66.0 0.00 0.00 0.00 65 1013.0
20260505035806 25 285 22.5 66.0 0.00 0.00 0.00 65 1013.0
20260505035607 25 285 22.5 66.0 0.00 0.00 0.00 65 1013.0
20260505035407 25 285 22.5 66.0 0.00 0.00 0.00 65 1013.0
20260505035206 25 285 22.5 66.0 0.00 0.00 0.00 65 1013.0
20260505035010 25 285 22.5 66.0 0.00 0.00 0.00 65 1013.0
20260505034806 25 285 22.5 66.0 0.00 0.00 0.00 65 1013.0
20260505034606 25 285 22.5 66.0 0.00 0.00 0.00 65 1013.0
20260505034228 25 281 22.5 67.6 0.00 0.00 0.00 66 1013.0
20260505034028 25 281 22.5 67.6 0.00 0.00 0.00 66 1013.0
20260505033246 25 281 22.5 67.6 0.00 0.00 0.00 66 1013.0
20260505033046 25 281 22.5 67.6 0.00 0.00 0.00 66 1013.0
20260505032846 25 277 22.5 67.6 0.00 0.00 0.00 68 1013.0
20260505032646 25 277 22.5 67.6 0.00 0.00 0.00 68 1013.0
20260505032446 25 277 22.5 67.6 0.00 0.00 0.00 68 1013.0
20260505032246 25 277 22.5 67.6 0.00 0.00 0.00 68 1013.0
20260505032046 25 277 22.5 67.6 0.00 0.00 0.00 68 1013.0
20260505031846 25 277 22.5 67.6 0.00 0.00 0.00 68 1013.0
20260505031646 25 277 22.5 67.6 0.00 0.00 0.00 68 1013.0
20260505031446 24 273 22.5 67.6 0.00 0.00 0.00 69 1013.0
20260505031046 24 273 22.5 67.6 0.00 0.00 0.00 69 1013.0
20260505030846 24 273 22.5 67.6 0.00 0.00 0.00 69 1013.0
20260505030646 24 273 22.5 67.6 0.00 0.00 0.00 69 1013.0
20260505030446 24 273 22.5 67.6 0.00 0.00 0.00 69 1013.0
20260505030246 24 273 22.5 67.6 0.00 0.00 0.00 69 1013.0
20260505030048 24 273 22.5 67.6 0.00 0.00 0.00 69 1013.0
20260505025847 24 269 24.1 67.6 0.00 0.00 0.00 69 1013.0
20260505025646 24 269 24.1 67.6 0.00 0.00 0.00 69 1013.0
20260505025446 24 269 24.1 67.6 0.00 0.00 0.00 69 1013.0
20260505025247 24 269 24.1 67.6 0.00 0.00 0.00 69 1013.0
20260505024847 24 269 24.1 67.6 0.00 0.00 0.00 69 1013.0
20260505024646 24 269 24.1 67.6 0.00 0.00 0.00 69 1013.0
20260505024446 23 264 24.1 67.6 0.00 0.00 0.00 69 1013.0
20260505024246 23 264 24.1 67.6 0.00 0.00 0.00 69 1013.0
20260505024046 23 264 24.1 67.6 0.00 0.00 0.00 69 1013.0
20260505023846 23 264 24.1 67.6 0.00 0.00 0.00 69 1013.0
20260505023646 23 264 24.1 67.6 0.00 0.00 0.00 69 1013.0
20260505023446 23 264 24.1 67.6 0.00 0.00 0.00 69 1013.0
20260505023246 23 264 24.1 67.6 0.00 0.00 0.00 69 1013.0
20260505022846 23 259 25.7 67.6 0.00 0.00 0.00 69 1013.0
20260505022646 23 259 25.7 67.6 0.00 0.00 0.00 69 1013.0
20260505022446 23 259 25.7 67.6 0.00 0.00 0.00 69 1013.0
20260505022246 23 259 25.7 67.6 0.00 0.00 0.00 69 1013.0
20260505022046 23 259 25.7 67.6 0.00 0.00 0.00 69 1013.0
20260505021846 23 259 25.7 67.6 0.00 0.00 0.00 69 1013.0
20260505021646 23 259 25.7 67.6 0.00 0.00 0.00 69 1013.0
20260505021446 23 257 25.7 66.0 0.00 0.00 0.00 68 1013.0
20260505021246 23 257 25.7 66.0 0.00 0.00 0.00 68 1013.0
20260505020846 23 257 25.7 66.0 0.00 0.00 0.00 68 1013.0
20260505020646 23 257 25.7 66.0 0.00 0.00 0.00 68 1013.0
20260505020446 23 257 25.7 66.0 0.00 0.00 0.00 68 1013.0
20260505020246 23 257 25.7 66.0 0.00 0.00 0.00 68 1013.0
20260505020048 23 257 25.7 66.0 0.00 0.00 0.00 68 1013.0
20260505015846 23 257 25.7 62.8 0.00 0.00 0.00 68 1013.0
20260505015647 23 257 25.7 62.8 0.00 0.00 0.00 68 1013.0
20260505015446 23 257 25.7 62.8 0.00 0.00 0.00 68 1013.0
20260505015246 23 257 25.7 62.8 0.00 0.00 0.00 68 1013.0
20260505015048 23 257 25.7 62.8 0.00 0.00 0.00 68 1013.0
20260505014646 23 257 25.7 62.8 0.00 0.00 0.00 68 1013.0
20260505014446 23 259 24.1 54.7 0.00 0.00 0.00 68 1012.0
20260505014246 23 259 24.1 54.7 0.00 0.00 0.00 68 1012.0
20260505014046 23 259 24.1 54.7 0.00 0.00 0.00 68 1012.0
20260505013846 23 259 24.1 54.7 0.00 0.00 0.00 68 1012.0
20260505013646 23 259 24.1 54.7 0.00 0.00 0.00 68 1012.0
20260505013446 23 259 24.1 54.7 0.00 0.00 0.00 68 1012.0
20260505013246 23 259 24.1 54.7 0.00 0.00 0.00 68 1012.0
20260505013047 23 263 24.1 54.7 0.00 0.00 0.00 68 1012.0
20260505012646 23 260 22.5 49.9 0.00 0.00 0.00 67 1012.0
20260505012446 23 260 22.5 49.9 0.00 0.00 0.00 67 1012.0
20260505012246 23 260 22.5 49.9 0.00 0.00 0.00 67 1012.0
20260505012046 23 260 22.5 49.9 0.00 0.00 0.00 67 1012.0
20260505011846 23 264 37.0 49.9 0.00 0.00 0.00 67 1012.0
20260505011646 23 264 37.0 49.9 0.00 0.00 0.00 67 1012.0
20260505011446 22 262 37.0 46.7 0.00 0.00 0.00 67 1012.0
20260505011246 22 262 37.0 46.7 0.00 0.00 0.00 67 1012.0
20260505011046 22 262 37.0 82.1 0.00 0.00 0.00 67 1012.0
20260505010847 22 262 37.0 82.1 0.00 0.00 0.00 67 1012.0
20260505010247 22 262 37.0 82.1 0.00 0.00 0.00 67 1012.0
20260505005447 22 262 33.8 77.2 0.00 0.00 0.00 67 1012.0
20260505005247 22 262 33.8 77.2 0.00 0.00 0.00 67 1012.0
20260505004846 22 262 33.8 77.2 0.00 0.00 0.00 67 1012.0
20260505004446 22 260 29.0 74.0 0.00 0.00 0.00 67 1012.0
20260505004246 22 260 29.0 74.0 0.00 0.00 0.00 67 1012.0
20260505004046 22 260 29.0 74.0 0.00 0.00 0.00 67 1012.0
20260505003846 22 260 29.0 74.0 0.00 0.00 0.00 67 1012.0
20260505003646 22 260 29.0 74.0 0.00 0.00 0.00 67 1012.0
20260505003446 22 260 29.0 74.0 0.00 0.00 0.00 67 1012.0
20260505003246 22 260 29.0 74.0 0.00 0.00 0.00 67 1012.0
20260505003046 22 260 29.0 74.0 0.00 0.00 0.00 67 1012.0
20260505002846 22 256 25.7 70.8 0.00 0.00 0.00 66 1011.0
20260505002646 22 256 25.7 70.8 0.00 0.00 0.00 66 1011.0
20260505002247 22 256 25.7 70.8 0.00 0.00 0.00 66 1011.0
20260505002047 22 256 25.7 70.8 0.00 0.00 0.00 66 1011.0
20260505001847 22 256 25.7 70.8 0.00 0.00 0.00 66 1011.0
20260505001647 22 256 25.7 70.8 0.00 0.00 0.00 66 1011.0
20260505001447 22 252 22.5 67.6 0.00 0.00 0.00 66 1011.0
20260505001247 22 252 22.5 67.6 0.00 0.00 0.00 66 1011.0
20260505001047 22 252 22.5 67.6 0.00 0.00 0.00 66 1011.0
20260505000846 22 252 22.5 67.6 0.00 0.00 0.00 66 1011.0
20260505000647 22 252 22.5 67.6 0.00 0.00 0.00 66 1011.0
20260505000447 22 252 22.5 67.6 0.00 0.00 0.00 66 1011.0
20260505000049 22 252 22.5 67.6 0.00 0.00 0.00 79 1011.0
20260504235847 22 246 24.1 70.8 0.00 0.00 0.00 78 1011.0
20260504235647 22 246 24.1 70.8 0.00 0.00 0.00 78 1011.0
20260504235447 22 246 24.1 70.8 0.00 0.00 0.00 78 1011.0
20260504235247 22 246 24.1 70.8 0.00 0.00 0.00 78 1011.0
20260504235047 22 246 24.1 70.8 0.00 0.00 0.00 78 1011.0
20260504234847 22 246 24.1 70.8 0.00 0.00 0.00 78 1011.0
20260504234647 22 246 24.1 70.8 0.00 0.00 0.00 78 1011.0
20260504234447 23 239 25.7 74.0 0.00 0.00 0.00 77 1011.0
20260504234248 23 239 25.7 74.0 0.00 0.00 0.00 77 1011.0
20260504233846 23 239 25.7 74.0 0.00 0.00 0.00 77 1011.0
20260504233646 23 239 25.7 74.0 0.00 0.00 0.00 77 1011.0
20260504233446 23 239 25.7 74.0 0.00 0.00 0.00 77 1011.0
20260504233246 23 239 25.7 74.0 0.00 0.00 0.00 77 1011.0
20260504233046 23 239 25.7 74.0 0.00 0.00 0.00 77 1011.0
20260504232847 23 233 29.0 77.2 0.00 0.00 0.00 75 1011.0
20260504232646 23 233 29.0 77.2 0.00 0.00 0.00 75 1011.0
20260504232446 23 233 29.0 77.2 0.00 0.00 0.00 75 1011.0
20260504232246 23 233 29.0 77.2 0.00 0.00 0.00 75 1011.0
20260504232047 23 233 29.0 77.2 0.00 0.00 0.00 75 1011.0
20260504231646 23 233 29.0 77.2 0.00 0.00 0.00 75 1011.0
20260504231447 23 229 30.6 78.9 0.00 0.00 0.00 73 1010.0
20260504231246 23 229 30.6 78.9 0.00 0.00 0.00 73 1010.0
20260504231046 23 229 30.6 78.9 0.00 0.00 0.00 73 1010.0
20260504230846 23 229 30.6 78.9 0.00 0.00 0.00 73 1010.0
20260504230646 23 229 30.6 78.9 0.00 0.00 0.00 73 1010.0
20260504230447 23 229 30.6 78.9 0.00 0.00 0.00 73 1010.0
20260504230246 23 229 30.6 78.9 0.00 0.00 0.00 73 1010.0
20260504230048 23 229 30.6 78.9 0.00 0.00 0.00 73 1010.0
20260504225647 23 228 32.2 78.9 0.00 0.00 0.00 71 1010.0
20260504225447 23 228 32.2 78.9 0.00 0.00 0.00 71 1010.0
20260504225247 23 228 32.2 78.9 0.00 0.00 0.00 71 1010.0
20260504225047 23 228 32.2 78.9 0.00 0.00 0.00 71 1010.0
20260504224847 23 228 32.2 78.9 0.00 0.00 0.00 71 1010.0
20260504224647 23 228 32.2 78.9 0.00 0.00 0.00 71 1010.0
20260504224447 23 228 33.8 78.9 0.00 0.00 0.00 69 1010.0
20260504224247 23 228 33.8 78.9 0.00 0.00 0.00 69 1010.0
20260504224047 23 228 33.8 78.9 0.00 0.00 0.00 69 1010.0
20260504223847 23 228 33.8 78.9 0.00 0.00 0.00 69 1010.0
20260504223447 23 228 33.8 78.9 0.00 0.00 0.00 69 1010.0
20260504223247 23 228 33.8 78.9 0.00 0.00 0.00 69 1010.0
20260504223047 23 228 33.8 78.9 0.00 0.00 0.00 69 1010.0
20260504222847 23 228 35.4 78.9 0.00 0.00 0.00 67 1010.0
20260504222647 23 228 35.4 78.9 0.00 0.00 0.00 67 1010.0
20260504222447 23 228 35.4 78.9 0.00 0.00 0.00 67 1010.0
20260504222247 23 228 35.4 78.9 0.00 0.00 0.00 67 1010.0
20260504222047 23 228 35.4 78.9 0.00 0.00 0.00 67 1010.0
20260504221847 23 228 35.4 78.9 0.00 0.00 0.00 67 1010.0
20260504221647 23 228 35.4 78.9 0.00 0.00 0.00 67 1010.0
20260504221246 23 227 35.4 77.2 0.00 0.00 0.00 66 1010.0
20260504221048 23 227 35.4 77.2 0.00 0.00 0.00 66 1010.0
20260504220846 23 227 35.4 77.2 0.00 0.00 0.00 66 1010.0
20260504220647 23 227 35.4 77.2 0.00 0.00 0.00 66 1010.0
20260504220447 23 227 35.4 77.2 0.00 0.00 0.00 66 1010.0
20260504220247 23 227 35.4 77.2 0.00 0.00 0.00 66 1010.0
20260504220048 23 227 35.4 77.2 0.00 0.00 0.00 66 1010.0
20260504215846 23 227 33.8 75.6 0.00 0.00 0.00 65 1010.0
20260504215646 23 227 33.8 75.6 0.00 0.00 0.00 65 1010.0
20260504215448 23 227 33.8 75.6 0.00 0.00 0.00 65 1010.0
20260504215047 23 227 33.8 75.6 0.00 0.00 0.00 65 1010.0
20260504214847 23 227 33.8 75.6 0.00 0.00 0.00 65 1010.0
20260504214647 23 227 33.8 75.6 0.00 0.00 0.00 65 1010.0
20260504214447 23 226 33.8 74.0 0.00 0.00 0.00 64 1010.0
20260504214247 23 226 33.8 74.0 0.00 0.00 0.00 64 1010.0
20260504214047 23 226 33.8 74.0 0.00 0.00 0.00 64 1010.0
20260504213847 23 226 33.8 74.0 0.00 0.00 0.00 64 1010.0
20260504213647 23 226 33.8 74.0 0.00 0.00 0.00 64 1010.0
20260504213447 23 226 33.8 74.0 0.00 0.00 0.00 64 1010.0
20260504213249 23 226 33.8 74.0 0.00 0.00 0.00 64 1010.0
20260504213047 23 226 33.8 74.0 0.00 0.00 0.00 64 1010.0
20260504212647 23 226 32.2 70.8 0.00 0.00 0.00 63 1010.0
20260504212447 23 226 32.2 70.8 0.00 0.00 0.00 63 1010.0
20260504212247 23 226 32.2 70.8 0.00 0.00 0.00 63 1010.0
20260504212047 23 226 32.2 70.8 0.00 0.00 0.00 63 1010.0
20260504211846 23 226 32.2 70.8 0.00 0.00 0.00 63 1010.0
20260504211646 23 226 32.2 70.8 0.00 0.00 0.00 63 1010.0
20260504211447 24 224 30.6 66.0 0.00 0.00 0.00 62 1010.0
20260504211247 24 224 30.6 66.0 0.00 0.00 0.00 62 1010.0
20260504211047 24 224 30.6 66.0 0.00 0.00 0.00 62 1010.0
20260504210847 24 224 30.6 66.0 0.00 0.00 0.00 62 1010.0
20260504210447 24 224 30.6 66.0 0.00 0.00 0.00 62 1010.0
20260504210247 24 224 30.6 66.0 0.00 0.00 0.00 62 1010.0
20260504210048 24 224 30.6 66.0 0.00 0.00 0.00 62 1010.0
20260504205847 24 223 29.0 62.8 0.00 0.00 0.00 62 1010.0
20260504205647 24 223 29.0 62.8 0.00 0.00 0.00 62 1010.0
20260504205447 24 223 29.0 62.8 0.00 0.00 0.00 62 1010.0
20260504205247 24 223 29.0 62.8 0.00 0.00 0.00 62 1010.0
20260504205047 24 223 29.0 62.8 0.00 0.00 0.00 62 1010.0
20260504204847 24 223 29.0 62.8 0.00 0.00 0.00 62 1010.0
20260504204648 24 223 29.0 62.8 0.00 0.00 0.00 62 1010.0
20260504204247 24 221 27.4 59.5 0.00 0.00 0.00 62 1010.0
20260504204047 24 221 27.4 59.5 0.00 0.00 0.00 62 1010.0
20260504203847 24 221 27.4 59.5 0.00 0.00 0.00 62 1010.0
20260504203647 24 221 27.4 59.5 0.00 0.00 0.00 62 1010.0
20260504203447 24 221 27.4 59.5 0.00 0.00 0.00 62 1010.0
20260504203247 24 221 27.4 59.5 0.00 0.00 0.00 62 1010.0
20260504203047 24 221 27.4 59.5 0.00 0.00 0.00 62 1010.0
20260504202847 24 219 25.7 54.7 0.00 0.00 0.00 62 1010.0
20260504202647 24 219 25.7 54.7 0.00 0.00 0.00 62 1010.0
20260504202247 24 214 29.0 54.7 0.00 0.00 0.00 62 1010.0
20260504202047 24 214 29.0 54.7 0.00 0.00 0.00 62 1010.0
20260504201847 24 214 29.0 54.7 0.00 0.00 0.00 62 1010.0
20260504201647 24 214 29.0 54.7 0.00 0.00 0.00 62 1010.0
20260504201447 24 209 29.0 51.5 0.00 0.00 0.00 62 1010.0
20260504201247 24 209 29.0 51.5 0.00 0.00 0.00 62 1010.0
20260504201047 24 209 29.0 51.5 0.00 0.00 0.00 62 1010.0
20260504200847 24 209 29.0 51.5 0.00 0.00 0.00 62 1010.0
20260504200647 24 209 29.0 51.5 0.00 0.00 0.00 62 1010.0
20260504200448 24 209 29.0 51.5 0.00 0.00 0.00 62 1010.0
20260504200048 24 209 29.0 51.5 0.00 0.00 0.00 62 1010.0
20260504195847 24 192 29.0 51.5 0.00 0.00 0.00 62 1010.0
20260504195647 24 192 29.0 51.5 0.00 0.00 0.00 62 1010.0
20260504195447 24 192 29.0 51.5 0.00 0.00 0.00 62 1010.0
20260504195247 24 192 29.0 51.5 0.00 0.00 0.00 62 1010.0
20260504195047 24 192 29.0 51.5 0.00 0.00 0.00 62 1010.0
20260504194847 24 192 29.0 51.5 0.00 0.00 0.00 62 1010.0
20260504194647 24 192 29.0 51.5 0.00 0.00 0.00 62 1010.0
20260504194447 24 193 32.2 51.5 0.00 0.00 0.00 62 1011.0
20260504194247 24 193 32.2 51.5 0.00 0.00 0.00 62 1011.0
20260504191447 25 195 37.0 86.9 0.00 0.00 0.00 60 1011.0
20260504191247 25 195 37.0 86.9 0.00 0.00 0.00 60 1011.0
20260504191047 25 195 37.0 86.9 0.00 0.00 0.00 63 1011.0
20260504190847 25 195 37.0 86.9 0.00 0.00 0.00 63 1011.0
20260504190647 25 195 37.0 86.9 0.00 0.00 0.00 63 1011.0
20260504190447 25 195 37.0 86.9 0.00 0.00 0.00 63 1011.0
20260504190247 25 195 37.0 86.9 0.00 0.00 0.00 63 1011.0
20260504190048 25 195 37.0 86.9 0.00 0.00 0.00 63 1011.0
20260504185847 25 195 37.0 83.7 0.00 0.05 0.00 63 1011.0
20260504185647 25 195 37.0 83.7 0.00 0.05 0.00 63 1011.0
20260504183247 25 195 37.0 80.5 0.00 0.05 0.00 62 1012.0
20260504183048 25 195 37.0 80.5 0.00 0.05 0.00 62 1012.0
20260504182846 25 195 37.0 75.6 0.00 0.05 0.00 61 1012.0
20260504182646 25 195 37.0 75.6 0.00 0.05 0.00 61 1012.0
20260504182447 25 195 37.0 75.6 0.00 0.05 0.00 61 1012.0
20260504182248 25 195 37.0 75.6 0.00 0.05 0.00 61 1012.0
20260504182048 25 195 37.0 75.6 0.00 0.05 0.00 61 1012.0
20260504181646 25 195 37.0 75.6 0.00 0.05 0.00 61 1012.0
20260504181446 25 191 35.4 72.4 0.00 0.05 0.00 60 1012.0
20260504181246 25 191 35.4 72.4 0.00 0.05 0.00 60 1012.0
20260504181047 25 191 35.4 72.4 0.00 0.05 0.00 60 1012.0
20260504180846 25 191 35.4 72.4 0.00 0.05 0.00 60 1012.0
20260504180646 25 191 35.4 72.4 0.00 0.05 0.00 60 1012.0
20260504180447 25 191 35.4 72.4 0.00 0.05 0.00 60 1012.0
20260504180247 25 191 35.4 72.4 0.00 0.05 0.00 60 1012.0
20260504180049 25 191 35.4 72.4 0.00 0.05 0.00 60 1012.0
20260504175549 25 184 33.8 72.4 0.00 0.05 0.00 59 1012.0
20260504175348 25 184 33.8 72.4 0.00 0.05 0.00 59 1012.0
20260504175148 25 184 33.8 72.4 0.00 0.05 0.00 59 1012.0
20260504174949 25 184 33.8 72.4 0.00 0.05 0.00 59 1012.0
20260504174749 25 184 33.8 72.4 0.00 0.05 0.00 59 1012.0
20260504174548 25 184 33.8 72.4 0.00 0.05 0.00 59 1012.0
20260504174349 25 172 32.2 72.4 0.00 0.05 0.00 58 1012.0
20260504173609 25 172 32.2 72.4 0.00 0.05 0.00 58 1012.0
20260504173409 25 172 32.2 72.4 0.00 0.05 0.00 58 1012.0
20260504173209 25 172 32.2 72.4 0.00 0.05 0.00 58 1012.0
20260504172630 25 158 30.6 70.8 0.00 0.05 0.00 58 1012.0
20260504172430 25 158 30.6 70.8 0.00 0.05 0.00 58 1012.0
20260504172230 25 158 30.6 70.8 0.00 0.05 0.00 58 1012.0
20260504171831 25 158 30.6 70.8 0.00 0.05 0.00 58 1012.0
20260504171631 25 158 30.6 70.8 0.00 0.05 0.00 58 1012.0
20260504171431 26 145 30.6 70.8 0.00 0.05 0.00 56 1012.0
20260504171231 26 145 30.6 70.8 0.00 0.05 0.00 56 1012.0
20260504171031 26 145 30.6 70.8 0.00 0.05 0.00 56 1012.0
20260504170831 26 145 30.6 70.8 0.00 0.05 0.00 56 1012.0
20260504170631 26 145 30.6 70.8 0.00 0.05 0.00 56 1012.0
20260504170431 26 145 30.6 70.8 0.00 0.05 0.00 56 1012.0
20260504170231 26 145 30.6 70.8 0.00 0.05 0.00 56 1012.0
20260504160431 27 107 32.2 66.0 0.00 0.05 0.00 50 1011.0
20260504160231 27 107 32.2 66.0 0.00 0.05 0.00 50 1011.0
20260504150831 28 148 20.9 48.3 0.00 0.05 0.00 40 1010.0
20260504150634 28 148 20.9 48.3 0.00 0.05 0.00 40 1010.0
20260504150431 28 148 20.9 48.3 0.00 0.05 0.00 40 1010.0
20260504150231 28 148 20.9 48.3 0.00 0.05 0.00 40 1010.0
20260504141231 30 342 9.7 41.8 0.00 0.05 0.00 31 1009.0
20260504141031 30 342 9.7 41.8 0.00 0.05 0.00 31 1009.0
20260504140831 30 342 9.7 41.8 0.00 0.05 0.00 31 1009.0
20260504140336 30 302 19.3 41.8 0.00 0.05 0.00 31 1009.0
20260504140137 30 302 19.3 41.8 0.00 0.05 0.00 31 1009.0
20260504130736 32 348 25.7 82.1 0.00 0.05 0.00 27 1007.0
20260504130536 32 348 25.7 82.1 0.00 0.05 0.00 27 1007.0
20260504130137 32 348 25.7 82.1 0.00 0.05 0.00 27 1007.0
20260504110259 34 3 33.8 93.3 0.00 0.05 0.00 23 1006.0
20260504100459 34 360 29.0 86.9 0.00 0.05 0.00 24 1006.0
20260504100300 34 360 29.0 86.9 0.00 0.05 0.00 24 1006.0
20260504081959 34 4 24.1 86.9 0.00 0.05 0.00 26 1008.0
20260504081800 34 4 24.1 86.9 0.00 0.05 0.00 26 1008.0
20260504081359 33 2 25.7 88.5 0.00 0.05 0.00 26 1008.0
20260504081159 33 2 25.7 88.5 0.00 0.05 0.00 26 1008.0
20260504080959 33 2 25.7 88.5 0.00 0.05 0.00 26 1008.0
20260504080759 33 2 25.7 88.5 0.00 0.05 0.00 26 1008.0
20260504080559 33 2 25.7 88.5 0.00 0.05 0.00 26 1008.0
20260504080359 33 2 25.7 88.5 0.00 0.05 0.00 26 1008.0
20260504080159 33 2 25.7 88.5 0.00 0.05 0.00 26 1008.0
20260504070359 34 340 30.6 99.8 0.00 0.00 0.00 27 1009.0
20260504070159 34 340 30.6 99.8 0.00 0.00 0.00 25 1009.0
20260504060234 33 326 32.2 99.8 0.00 0.00 0.00 28 1010.0